Year,Month,Day,Hour,Minute,Value (Times are PST for temperature in C)
2015,07,20,00,00,23.10
2015,07,20,00,01,23.00
2015,07,20,00,02,23.00
2015,07,20,00,03,22.90
2015,07,20,00,04,22.80
2015,07,20,00,05,22.80
2015,07,20,00,06,22.70
2015,07,20,00,07,22.60
2015,07,20,00,08,22.40
2015,07,20,00,09,22.40
2015,07,20,00,10,22.30
2015,07,20,00,11,22.20
2015,07,20,00,12,22.10
2015,07,20,00,13,22.00
2015,07,20,00,14,21.90
2015,07,20,00,15,21.90
2015,07,20,00,16,21.80
2015,07,20,00,17,21.80
2015,07,20,00,18,21.80
2015,07,20,00,19,21.80
2015,07,20,00,20,21.80
2015,07,20,00,21,21.80
2015,07,20,00,22,21.90
2015,07,20,00,23,22.00
2015,07,20,00,24,22.10
2015,07,20,00,25,22.10
2015,07,20,00,26,22.10
2015,07,20,00,27,22.10
2015,07,20,00,28,22.10
2015,07,20,00,29,22.10
2015,07,20,00,30,22.10
2015,07,20,00,31,22.00
2015,07,20,00,32,22.00
2015,07,20,00,33,21.90
2015,07,20,00,34,21.90
2015,07,20,00,35,21.80
2015,07,20,00,36,21.80
2015,07,20,00,37,21.70
2015,07,20,00,38,21.70
2015,07,20,00,39,21.60
2015,07,20,00,40,21.60
2015,07,20,00,41,21.50
2015,07,20,00,42,21.50
2015,07,20,00,43,21.50
2015,07,20,00,44,21.40
2015,07,20,00,45,21.50
2015,07,20,00,46,21.60
2015,07,20,00,47,21.80
2015,07,20,00,48,22.00
2015,07,20,00,49,22.30
2015,07,20,00,50,22.40
2015,07,20,00,51,22.60
2015,07,20,00,52,22.70
2015,07,20,00,53,22.90
2015,07,20,00,54,23.00
2015,07,20,00,55,23.10
2015,07,20,00,56,23.10
2015,07,20,00,57,23.10
2015,07,20,00,58,23.20
2015,07,20,00,59,23.10
2015,07,20,01,00,23.10
2015,07,20,01,01,23.10
2015,07,20,01,02,23.10
2015,07,20,01,03,23.10
2015,07,20,01,04,23.00
2015,07,20,01,05,23.00
2015,07,20,01,06,23.00
2015,07,20,01,07,23.00
2015,07,20,01,08,23.00
2015,07,20,01,09,22.90
2015,07,20,01,10,22.90
2015,07,20,01,11,22.90
2015,07,20,01,12,22.90
2015,07,20,01,13,22.90
2015,07,20,01,14,22.90
2015,07,20,01,15,22.90
2015,07,20,01,16,22.80
2015,07,20,01,17,22.80
2015,07,20,01,18,22.80
2015,07,20,01,19,22.80
2015,07,20,01,20,22.70
2015,07,20,01,21,22.70
2015,07,20,01,22,22.70
2015,07,20,01,23,22.70
2015,07,20,01,24,22.60
2015,07,20,01,25,22.60
2015,07,20,01,26,22.60
2015,07,20,01,27,22.50
2015,07,20,01,28,22.50
2015,07,20,01,29,22.50
2015,07,20,01,30,22.40
2015,07,20,01,31,22.40
2015,07,20,01,32,22.40
2015,07,20,01,33,22.40
2015,07,20,01,34,22.40
2015,07,20,01,35,22.30
2015,07,20,01,36,22.30
2015,07,20,01,37,22.30
2015,07,20,01,38,22.30
2015,07,20,01,39,22.30
2015,07,20,01,40,22.30
2015,07,20,01,41,22.20
2015,07,20,01,42,22.20
2015,07,20,01,43,22.20
2015,07,20,01,44,22.10
2015,07,20,01,45,22.10
2015,07,20,01,46,22.10
2015,07,20,01,47,22.10
2015,07,20,01,48,22.10
2015,07,20,01,49,22.10
2015,07,20,01,50,22.00
2015,07,20,01,51,22.00
2015,07,20,01,52,22.00
2015,07,20,01,53,21.90
2015,07,20,01,54,21.90
2015,07,20,01,55,21.90
2015,07,20,01,56,21.90
2015,07,20,01,57,21.90
2015,07,20,01,58,21.90
2015,07,20,01,59,21.90
2015,07,20,02,00,21.90
2015,07,20,02,01,21.80
2015,07,20,02,02,21.80
2015,07,20,02,03,21.80
2015,07,20,02,04,21.80
2015,07,20,02,05,21.80
2015,07,20,02,06,21.80
2015,07,20,02,07,21.80
2015,07,20,02,08,21.80
2015,07,20,02,09,21.80
2015,07,20,02,10,21.80
2015,07,20,02,11,21.80
2015,07,20,02,12,21.80
2015,07,20,02,13,21.70
2015,07,20,02,14,21.70
2015,07,20,02,15,21.70
2015,07,20,02,16,21.70
2015,07,20,02,17,21.70
2015,07,20,02,18,21.70
2015,07,20,02,19,21.70
2015,07,20,02,20,21.70
2015,07,20,02,21,21.60
2015,07,20,02,22,21.60
2015,07,20,02,23,21.60
2015,07,20,02,24,21.60
2015,07,20,02,25,21.50
2015,07,20,02,26,21.50
2015,07,20,02,27,21.50
2015,07,20,02,28,21.40
2015,07,20,02,29,21.40
2015,07,20,02,30,21.40
2015,07,20,02,31,21.40
2015,07,20,02,32,21.30
2015,07,20,02,33,21.30
2015,07,20,02,34,21.30
2015,07,20,02,35,21.30
2015,07,20,02,36,21.30
2015,07,20,02,37,21.30
2015,07,20,02,38,21.30
2015,07,20,02,39,21.20
2015,07,20,02,40,21.20
2015,07,20,02,41,21.20
2015,07,20,02,42,21.20
2015,07,20,02,43,21.20
2015,07,20,02,44,21.10
2015,07,20,02,45,21.10
2015,07,20,02,46,21.10
2015,07,20,02,47,21.10
2015,07,20,02,48,21.10
2015,07,20,02,49,21.10
2015,07,20,02,50,21.10
2015,07,20,02,51,21.20
2015,07,20,02,52,21.20
2015,07,20,02,53,21.20
2015,07,20,02,54,21.20
2015,07,20,02,55,21.30
2015,07,20,02,56,21.30
2015,07,20,02,57,21.30
2015,07,20,02,58,21.30
2015,07,20,02,59,21.30
2015,07,20,03,00,21.30
2015,07,20,03,01,21.30
2015,07,20,03,02,21.30
2015,07,20,03,03,21.30
2015,07,20,03,04,21.30
2015,07,20,03,05,21.30
2015,07,20,03,06,21.30
2015,07,20,03,07,21.30
2015,07,20,03,08,21.20
2015,07,20,03,09,21.20
2015,07,20,03,10,21.20
2015,07,20,03,11,21.20
2015,07,20,03,12,21.10
2015,07,20,03,13,21.10
2015,07,20,03,14,21.10
2015,07,20,03,15,21.00
2015,07,20,03,16,21.00
2015,07,20,03,17,20.90
2015,07,20,03,18,20.90
2015,07,20,03,19,20.80
2015,07,20,03,20,20.80
2015,07,20,03,21,20.80
2015,07,20,03,22,20.70
2015,07,20,03,23,20.70
2015,07,20,03,24,20.60
2015,07,20,03,25,20.60
2015,07,20,03,26,20.60
2015,07,20,03,27,20.60
2015,07,20,03,28,20.50
2015,07,20,03,29,20.50
2015,07,20,03,30,20.40
2015,07,20,03,31,20.40
2015,07,20,03,32,20.40
2015,07,20,03,33,20.40
2015,07,20,03,34,20.30
2015,07,20,03,35,20.30
2015,07,20,03,36,20.30
2015,07,20,03,37,20.20
2015,07,20,03,38,20.20
2015,07,20,03,39,20.20
2015,07,20,03,40,20.20
2015,07,20,03,41,20.10
2015,07,20,03,42,20.10
2015,07,20,03,43,20.10
2015,07,20,03,44,20.00
2015,07,20,03,45,20.00
2015,07,20,03,46,20.00
2015,07,20,03,47,20.00
2015,07,20,03,48,19.90
2015,07,20,03,49,19.90
2015,07,20,03,50,19.90
2015,07,20,03,51,19.90
2015,07,20,03,52,19.90
2015,07,20,03,53,19.90
2015,07,20,03,54,19.90
2015,07,20,03,55,19.80
2015,07,20,03,56,19.80
2015,07,20,03,57,19.80
2015,07,20,03,58,19.80
2015,07,20,03,59,19.80
2015,07,20,04,00,19.80
2015,07,20,04,01,19.80
2015,07,20,04,02,19.80
2015,07,20,04,03,19.80
2015,07,20,04,04,19.70
2015,07,20,04,05,19.70
2015,07,20,04,06,19.70
2015,07,20,04,07,19.70
2015,07,20,04,08,19.70
2015,07,20,04,09,19.60
2015,07,20,04,10,19.60
2015,07,20,04,11,19.60
2015,07,20,04,12,19.60
2015,07,20,04,13,19.60
2015,07,20,04,14,19.60
2015,07,20,04,15,19.60
2015,07,20,04,16,19.60
2015,07,20,04,17,19.60
2015,07,20,04,18,19.60
2015,07,20,04,19,19.60
2015,07,20,04,20,19.60
2015,07,20,04,21,19.60
2015,07,20,04,22,19.60
2015,07,20,04,23,19.60
2015,07,20,04,24,19.60
2015,07,20,04,25,19.60
2015,07,20,04,26,19.60
2015,07,20,04,27,19.60
2015,07,20,04,28,19.60
2015,07,20,04,29,19.60
2015,07,20,04,30,19.60
2015,07,20,04,31,19.50
2015,07,20,04,32,19.50
2015,07,20,04,33,19.50
2015,07,20,04,34,19.50
2015,07,20,04,35,19.40
2015,07,20,04,36,19.40
2015,07,20,04,37,19.30
2015,07,20,04,38,19.20
2015,07,20,04,39,19.10
2015,07,20,04,40,19.00
2015,07,20,04,41,19.00
2015,07,20,04,42,18.90
2015,07,20,04,43,18.80
2015,07,20,04,44,18.70
2015,07,20,04,45,18.70
2015,07,20,04,46,18.60
2015,07,20,04,47,18.50
2015,07,20,04,48,18.40
2015,07,20,04,49,18.40
2015,07,20,04,50,18.30
2015,07,20,04,51,18.20
2015,07,20,04,52,18.10
2015,07,20,04,53,18.00
2015,07,20,04,54,18.00
2015,07,20,04,55,17.90
2015,07,20,04,56,17.80
2015,07,20,04,57,17.80
2015,07,20,04,58,17.80
2015,07,20,04,59,17.70
2015,07,20,05,00,17.70
2015,07,20,05,01,17.70
2015,07,20,05,02,17.60
2015,07,20,05,03,17.60
2015,07,20,05,04,17.50
2015,07,20,05,05,17.50
2015,07,20,05,06,17.50
2015,07,20,05,07,17.40
2015,07,20,05,08,17.40
2015,07,20,05,09,17.30
2015,07,20,05,10,17.30
2015,07,20,05,11,17.30
2015,07,20,05,12,17.20
2015,07,20,05,13,17.20
2015,07,20,05,14,17.10
2015,07,20,05,15,17.10
2015,07,20,05,16,17.10
2015,07,20,05,17,17.00
2015,07,20,05,18,17.00
2015,07,20,05,19,16.90
2015,07,20,05,20,16.90
2015,07,20,05,21,16.90
2015,07,20,05,22,16.80
2015,07,20,05,23,16.80
2015,07,20,05,24,16.80
2015,07,20,05,25,16.80
2015,07,20,05,26,16.80
2015,07,20,05,27,16.70
2015,07,20,05,28,16.70
2015,07,20,05,29,16.70
2015,07,20,05,30,16.70
2015,07,20,05,31,16.70
2015,07,20,05,32,16.70
2015,07,20,05,33,16.70
2015,07,20,05,34,16.70
2015,07,20,05,35,16.70
2015,07,20,05,36,16.70
2015,07,20,05,37,16.70
2015,07,20,05,38,16.70
2015,07,20,05,39,16.60
2015,07,20,05,40,16.60
2015,07,20,05,41,16.60
2015,07,20,05,42,16.60
2015,07,20,05,43,16.60
2015,07,20,05,44,16.60
2015,07,20,05,45,16.60
2015,07,20,05,46,16.50
2015,07,20,05,47,16.50
2015,07,20,05,48,16.50
2015,07,20,05,49,16.50
2015,07,20,05,50,16.50
2015,07,20,05,51,16.50
2015,07,20,05,52,16.50
2015,07,20,05,53,16.50
2015,07,20,05,54,16.50
2015,07,20,05,55,16.50
2015,07,20,05,56,16.40
2015,07,20,05,57,16.40
2015,07,20,05,58,16.40
2015,07,20,05,59,16.40
2015,07,20,06,00,16.40
2015,07,20,06,01,16.40
2015,07,20,06,02,16.40
2015,07,20,06,03,16.40
2015,07,20,06,04,16.40
2015,07,20,06,05,16.40
2015,07,20,06,06,16.30
2015,07,20,06,07,16.30
2015,07,20,06,08,16.30
2015,07,20,06,09,16.30
2015,07,20,06,10,16.30
2015,07,20,06,11,16.40
2015,07,20,06,12,16.40
2015,07,20,06,13,16.40
2015,07,20,06,14,16.40
2015,07,20,06,15,16.50
2015,07,20,06,16,16.50
2015,07,20,06,17,16.60
2015,07,20,06,18,16.60
2015,07,20,06,19,16.60
2015,07,20,06,20,16.70
2015,07,20,06,21,16.70
2015,07,20,06,22,16.90
2015,07,20,06,23,17.00
2015,07,20,06,24,17.20
2015,07,20,06,25,17.40
2015,07,20,06,26,17.60
2015,07,20,06,27,17.70
2015,07,20,06,28,17.80
2015,07,20,06,29,17.90
2015,07,20,06,30,18.00
2015,07,20,06,31,18.10
2015,07,20,06,32,18.20
2015,07,20,06,33,18.30
2015,07,20,06,34,18.30
2015,07,20,06,35,18.40
2015,07,20,06,36,18.40
2015,07,20,06,37,18.50
2015,07,20,06,38,18.60
2015,07,20,06,39,18.60
2015,07,20,06,40,18.60
2015,07,20,06,41,18.60
2015,07,20,06,42,18.60
2015,07,20,06,43,18.60
2015,07,20,06,44,18.60
2015,07,20,06,45,18.60
2015,07,20,06,46,18.60
2015,07,20,06,47,18.60
2015,07,20,06,48,18.70
2015,07,20,06,49,18.80
2015,07,20,06,50,18.80
2015,07,20,06,51,18.90
2015,07,20,06,52,19.00
2015,07,20,06,53,19.00
2015,07,20,06,54,19.00
2015,07,20,06,55,19.10
2015,07,20,06,56,19.10
2015,07,20,06,57,19.10
2015,07,20,06,58,19.10
2015,07,20,06,59,19.10
2015,07,20,07,00,19.10
2015,07,20,07,01,19.20
2015,07,20,07,02,19.20
2015,07,20,07,03,19.20
2015,07,20,07,04,19.20
2015,07,20,07,05,19.20
2015,07,20,07,06,19.30
2015,07,20,07,07,19.30
2015,07,20,07,08,19.30
2015,07,20,07,09,19.30
2015,07,20,07,10,19.30
2015,07,20,07,11,19.30
2015,07,20,07,12,19.40
2015,07,20,07,13,19.40
2015,07,20,07,14,19.50
2015,07,20,07,15,19.50
2015,07,20,07,16,19.60
2015,07,20,07,17,19.60
2015,07,20,07,18,19.60
2015,07,20,07,19,19.60
2015,07,20,07,20,19.60
2015,07,20,07,21,19.60
2015,07,20,07,22,19.60
2015,07,20,07,23,19.70
2015,07,20,07,24,19.70
2015,07,20,07,25,19.70
2015,07,20,07,26,19.70
2015,07,20,07,27,19.80
2015,07,20,07,28,19.80
2015,07,20,07,29,19.90
2015,07,20,07,30,19.90
2015,07,20,07,31,19.90
2015,07,20,07,32,19.80
2015,07,20,07,33,19.80
2015,07,20,07,34,19.80
2015,07,20,07,35,19.80
2015,07,20,07,36,19.70
2015,07,20,07,37,19.70
2015,07,20,07,38,19.70
2015,07,20,07,39,19.70
2015,07,20,07,40,19.70
2015,07,20,07,41,19.70
2015,07,20,07,42,19.70
2015,07,20,07,43,19.70
2015,07,20,07,44,19.80
2015,07,20,07,45,19.80
2015,07,20,07,46,19.80
2015,07,20,07,47,19.80
2015,07,20,07,48,19.80
2015,07,20,07,49,19.80
2015,07,20,07,50,19.80
2015,07,20,07,51,19.70
2015,07,20,07,52,19.70
2015,07,20,07,53,19.70
2015,07,20,07,54,19.70
2015,07,20,07,55,19.70
2015,07,20,07,56,19.70
2015,07,20,07,57,19.70
2015,07,20,07,58,19.70
2015,07,20,07,59,19.70
2015,07,20,08,00,19.70
2015,07,20,08,01,19.60
2015,07,20,08,02,19.60
2015,07,20,08,03,19.50
2015,07,20,08,04,19.50
2015,07,20,08,05,19.60
2015,07,20,08,06,19.60
2015,07,20,08,07,19.60
2015,07,20,08,08,19.60
2015,07,20,08,09,19.60
2015,07,20,08,10,19.60
2015,07,20,08,11,19.60
2015,07,20,08,12,19.60
2015,07,20,08,13,19.70
2015,07,20,08,14,19.70
2015,07,20,08,15,19.80
2015,07,20,08,16,19.80
2015,07,20,08,17,19.80
2015,07,20,08,18,19.90
2015,07,20,08,19,19.80
2015,07,20,08,20,19.80
2015,07,20,08,21,19.80
2015,07,20,08,22,19.80
2015,07,20,08,23,19.80
2015,07,20,08,24,19.90
2015,07,20,08,25,19.90
2015,07,20,08,26,19.90
2015,07,20,08,27,19.90
2015,07,20,08,28,19.80
2015,07,20,08,29,19.80
2015,07,20,08,30,19.80
2015,07,20,08,31,19.80
2015,07,20,08,32,19.90
2015,07,20,08,33,19.90
2015,07,20,08,34,19.90
2015,07,20,08,35,19.90
2015,07,20,08,36,19.90
2015,07,20,08,37,19.90
2015,07,20,08,38,20.00
2015,07,20,08,39,20.00
2015,07,20,08,40,20.00
2015,07,20,08,41,20.00
2015,07,20,08,42,20.00
2015,07,20,08,43,20.00
2015,07,20,08,44,19.90
2015,07,20,08,45,19.90
2015,07,20,08,46,19.80
2015,07,20,08,47,19.80
2015,07,20,08,48,19.80
2015,07,20,08,49,19.90
2015,07,20,08,50,19.90
2015,07,20,08,51,19.90
2015,07,20,08,52,20.00
2015,07,20,08,53,20.00
2015,07,20,08,54,20.10
2015,07,20,08,55,20.10
2015,07,20,08,56,20.20
2015,07,20,08,57,20.20
2015,07,20,08,58,20.20
2015,07,20,08,59,20.20
2015,07,20,09,00,20.30
2015,07,20,09,01,20.30
2015,07,20,09,02,20.40
2015,07,20,09,03,20.40
2015,07,20,09,04,20.50
2015,07,20,09,05,20.50
2015,07,20,09,06,20.60
2015,07,20,09,07,20.50
2015,07,20,09,08,20.40
2015,07,20,09,09,20.30
2015,07,20,09,10,20.30
2015,07,20,09,11,20.30
2015,07,20,09,12,20.30
2015,07,20,09,13,20.30
2015,07,20,09,14,20.40
2015,07,20,09,15,20.40
2015,07,20,09,16,20.40
2015,07,20,09,17,20.40
2015,07,20,09,18,20.40
2015,07,20,09,19,20.40
2015,07,20,09,20,20.40
2015,07,20,09,21,20.20
2015,07,20,09,22,20.20
2015,07,20,09,23,20.20
2015,07,20,09,24,20.10
2015,07,20,09,25,20.00
2015,07,20,09,26,19.90
2015,07,20,09,27,19.90
2015,07,20,09,28,19.90
2015,07,20,09,29,19.90
2015,07,20,09,30,20.00
2015,07,20,09,31,20.10
2015,07,20,09,32,20.20
2015,07,20,09,33,20.30
2015,07,20,09,34,20.40
2015,07,20,09,35,20.40
2015,07,20,09,36,20.40
2015,07,20,09,37,20.30
2015,07,20,09,38,20.30
2015,07,20,09,39,20.30
2015,07,20,09,40,20.30
2015,07,20,09,41,20.20
2015,07,20,09,42,20.00
2015,07,20,09,43,20.00
2015,07,20,09,44,19.90
2015,07,20,09,45,19.80
2015,07,20,09,46,19.80
2015,07,20,09,47,19.80
2015,07,20,09,48,19.80
2015,07,20,09,49,19.80
2015,07,20,09,50,19.90
2015,07,20,09,51,20.00
2015,07,20,09,52,20.10
2015,07,20,09,53,20.20
2015,07,20,09,54,20.30
2015,07,20,09,55,20.40
2015,07,20,09,56,20.40
2015,07,20,09,57,20.40
2015,07,20,09,58,20.30
2015,07,20,09,59,20.30
2015,07,20,10,00,20.30
2015,07,20,10,01,20.30
2015,07,20,10,02,20.20
2015,07,20,10,03,20.20
2015,07,20,10,04,20.20
2015,07,20,10,05,20.10
2015,07,20,10,06,20.10
2015,07,20,10,07,20.10
2015,07,20,10,08,20.10
2015,07,20,10,09,20.10
2015,07,20,10,10,20.20
2015,07,20,10,11,20.20
2015,07,20,10,12,20.30
2015,07,20,10,13,20.40
2015,07,20,10,14,20.50
2015,07,20,10,15,20.60
2015,07,20,10,16,20.70
2015,07,20,10,17,20.80
2015,07,20,10,18,20.90
2015,07,20,10,19,20.90
2015,07,20,10,20,21.00
2015,07,20,10,21,21.10
2015,07,20,10,22,21.20
2015,07,20,10,23,21.30
2015,07,20,10,24,21.30
2015,07,20,10,25,21.50
2015,07,20,10,26,21.50
2015,07,20,10,27,21.60
2015,07,20,10,28,21.60
2015,07,20,10,29,21.60
2015,07,20,10,30,21.80
2015,07,20,10,31,21.80
2015,07,20,10,32,21.80
2015,07,20,10,33,21.70
2015,07,20,10,34,21.70
2015,07,20,10,35,21.60
2015,07,20,10,36,21.60
2015,07,20,10,37,21.60
2015,07,20,10,38,21.60
2015,07,20,10,39,21.60
2015,07,20,10,40,21.50
2015,07,20,10,41,21.50
2015,07,20,10,42,21.40
2015,07,20,10,43,21.30
2015,07,20,10,44,21.30
2015,07,20,10,45,21.30
2015,07,20,10,46,21.20
2015,07,20,10,47,21.20
2015,07,20,10,48,21.20
2015,07,20,10,49,21.30
2015,07,20,10,50,21.40
2015,07,20,10,51,21.40
2015,07,20,10,52,21.50
2015,07,20,10,53,21.60
2015,07,20,10,54,21.60
2015,07,20,10,55,21.60
2015,07,20,10,56,21.40
2015,07,20,10,57,21.30
2015,07,20,10,58,21.30
2015,07,20,10,59,21.30
2015,07,20,11,00,21.40
2015,07,20,11,01,21.30
2015,07,20,11,02,21.30
2015,07,20,11,03,21.30
2015,07,20,11,04,21.40
2015,07,20,11,05,21.50
2015,07,20,11,06,21.60
2015,07,20,11,07,21.60
2015,07,20,11,08,21.60
2015,07,20,11,09,21.60
2015,07,20,11,10,21.60
2015,07,20,11,11,21.70
2015,07,20,11,12,21.70
2015,07,20,11,13,21.60
2015,07,20,11,14,21.50
2015,07,20,11,15,21.50
2015,07,20,11,16,21.40
2015,07,20,11,17,21.30
2015,07,20,11,18,21.30
2015,07,20,11,19,21.30
2015,07,20,11,20,21.20
2015,07,20,11,21,21.20
2015,07,20,11,22,21.10
2015,07,20,11,23,21.10
2015,07,20,11,24,21.10
2015,07,20,11,25,21.10
2015,07,20,11,26,21.10
2015,07,20,11,27,21.20
2015,07,20,11,28,21.30
2015,07,20,11,29,21.30
2015,07,20,11,30,21.30
2015,07,20,11,31,21.20
2015,07,20,11,32,21.20
2015,07,20,11,33,21.20
2015,07,20,11,34,21.30
2015,07,20,11,35,21.30
2015,07,20,11,36,21.40
2015,07,20,11,37,21.50
2015,07,20,11,38,21.40
2015,07,20,11,39,21.30
2015,07,20,11,40,21.20
2015,07,20,11,41,21.00
2015,07,20,11,42,21.00
2015,07,20,11,43,21.00
2015,07,20,11,44,21.00
2015,07,20,11,45,21.10
2015,07,20,11,46,21.10
2015,07,20,11,47,21.10
2015,07,20,11,48,21.00
2015,07,20,11,49,21.10
2015,07,20,11,50,21.10
2015,07,20,11,51,21.20
2015,07,20,11,52,21.20
2015,07,20,11,53,21.30
2015,07,20,11,54,21.40
2015,07,20,11,55,21.50
2015,07,20,11,56,21.70
2015,07,20,11,57,21.80
2015,07,20,11,58,21.90
2015,07,20,11,59,22.00
2015,07,20,12,00,22.00
2015,07,20,12,01,22.00
2015,07,20,12,02,21.90
2015,07,20,12,03,21.90
2015,07,20,12,04,21.80
2015,07,20,12,05,21.90
2015,07,20,12,06,22.00
2015,07,20,12,07,22.00
2015,07,20,12,08,22.00
2015,07,20,12,09,21.80
2015,07,20,12,10,21.70
2015,07,20,12,11,21.70
2015,07,20,12,12,21.60
2015,07,20,12,13,21.50
2015,07,20,12,14,21.40
2015,07,20,12,15,21.50
2015,07,20,12,16,21.40
2015,07,20,12,17,21.50
2015,07,20,12,18,21.40
2015,07,20,12,19,21.30
2015,07,20,12,20,21.30
2015,07,20,12,21,21.40
2015,07,20,12,22,21.40
2015,07,20,12,23,21.40
2015,07,20,12,24,21.50
2015,07,20,12,25,21.70
2015,07,20,12,26,21.80
2015,07,20,12,27,21.80
2015,07,20,12,28,21.80
2015,07,20,12,29,21.80
2015,07,20,12,30,21.80
2015,07,20,12,31,21.80
2015,07,20,12,32,21.70
2015,07,20,12,33,21.60
2015,07,20,12,34,21.50
2015,07,20,12,35,21.50
2015,07,20,12,36,21.50
2015,07,20,12,37,21.50
2015,07,20,12,38,21.50
2015,07,20,12,39,21.50
2015,07,20,12,40,21.60
2015,07,20,12,41,21.60
2015,07,20,12,42,21.60
2015,07,20,12,43,21.70
2015,07,20,12,44,21.60
2015,07,20,12,45,21.60
2015,07,20,12,46,21.70
2015,07,20,12,47,21.80
2015,07,20,12,48,21.70
2015,07,20,12,49,21.60
2015,07,20,12,50,21.50
2015,07,20,12,51,21.30
2015,07,20,12,52,21.30
2015,07,20,12,53,21.50
2015,07,20,12,54,21.70
2015,07,20,12,55,21.90
2015,07,20,12,56,21.90
2015,07,20,12,57,22.00
2015,07,20,12,58,22.10
2015,07,20,12,59,22.10
2015,07,20,13,00,22.10
2015,07,20,13,01,21.90
2015,07,20,13,02,21.80
2015,07,20,13,03,21.60
2015,07,20,13,04,21.60
2015,07,20,13,05,21.60
2015,07,20,13,06,21.60
2015,07,20,13,07,21.80
2015,07,20,13,08,21.90
2015,07,20,13,09,22.10
2015,07,20,13,10,22.20
2015,07,20,13,11,22.10
2015,07,20,13,12,22.10
2015,07,20,13,13,21.90
2015,07,20,13,14,21.80
2015,07,20,13,15,21.70
2015,07,20,13,16,21.60
2015,07,20,13,17,21.60
2015,07,20,13,18,21.60
2015,07,20,13,19,21.70
2015,07,20,13,20,21.80
2015,07,20,13,21,21.90
2015,07,20,13,22,22.10
2015,07,20,13,23,22.30
2015,07,20,13,24,22.30
2015,07,20,13,25,22.20
2015,07,20,13,26,22.30
2015,07,20,13,27,22.40
2015,07,20,13,28,22.40
2015,07,20,13,29,22.50
2015,07,20,13,30,22.60
2015,07,20,13,31,22.60
2015,07,20,13,32,22.40
2015,07,20,13,33,22.30
2015,07,20,13,34,22.10
2015,07,20,13,35,22.10
2015,07,20,13,36,22.10
2015,07,20,13,37,22.10
2015,07,20,13,38,22.10
2015,07,20,13,39,22.20
2015,07,20,13,40,22.40
2015,07,20,13,41,22.50
2015,07,20,13,42,22.60
2015,07,20,13,43,22.40
2015,07,20,13,44,22.30
2015,07,20,13,45,22.20
2015,07,20,13,46,22.10
2015,07,20,13,47,22.00
2015,07,20,13,48,22.00
2015,07,20,13,49,21.90
2015,07,20,13,50,22.00
2015,07,20,13,51,22.10
2015,07,20,13,52,22.10
2015,07,20,13,53,22.10
2015,07,20,13,54,22.10
2015,07,20,13,55,22.10
2015,07,20,13,56,22.20
2015,07,20,13,57,22.20
2015,07,20,13,58,22.20
2015,07,20,13,59,22.20
2015,07,20,14,00,22.30
2015,07,20,14,01,22.30
2015,07,20,14,02,22.40
2015,07,20,14,03,22.40
2015,07,20,14,04,22.40
2015,07,20,14,05,22.50
2015,07,20,14,06,22.40
2015,07,20,14,07,22.40
2015,07,20,14,08,22.30
2015,07,20,14,09,22.20
2015,07,20,14,10,22.20
2015,07,20,14,11,22.30
2015,07,20,14,12,22.30
2015,07,20,14,13,22.30
2015,07,20,14,14,22.30
2015,07,20,14,15,22.20
2015,07,20,14,16,22.10
2015,07,20,14,17,22.20
2015,07,20,14,18,22.30
2015,07,20,14,19,22.20
2015,07,20,14,20,22.20
2015,07,20,14,21,22.20
2015,07,20,14,22,22.20
2015,07,20,14,23,22.30
2015,07,20,14,24,22.40
2015,07,20,14,25,22.40
2015,07,20,14,26,22.40
2015,07,20,14,27,22.40
2015,07,20,14,28,22.40
2015,07,20,14,29,22.40
2015,07,20,14,30,22.40
2015,07,20,14,31,22.30
2015,07,20,14,32,22.30
2015,07,20,14,33,22.30
2015,07,20,14,34,22.40
2015,07,20,14,35,22.40
2015,07,20,14,36,22.50
2015,07,20,14,37,22.60
2015,07,20,14,38,22.70
2015,07,20,14,39,22.70
2015,07,20,14,40,22.70
2015,07,20,14,41,22.70
2015,07,20,14,42,22.60
2015,07,20,14,43,22.60
2015,07,20,14,44,22.60
2015,07,20,14,45,22.50
2015,07,20,14,46,22.40
2015,07,20,14,47,22.40
2015,07,20,14,48,22.40
2015,07,20,14,49,22.40
2015,07,20,14,50,22.30
2015,07,20,14,51,22.30
2015,07,20,14,52,22.30
2015,07,20,14,53,22.20
2015,07,20,14,54,22.20
2015,07,20,14,55,22.30
2015,07,20,14,56,22.40
2015,07,20,14,57,22.50
2015,07,20,14,58,22.50
2015,07,20,14,59,22.30
2015,07,20,15,00,22.30
2015,07,20,15,01,22.40
2015,07,20,15,02,22.50
2015,07,20,15,03,22.70
2015,07,20,15,04,22.70
2015,07,20,15,05,22.60
2015,07,20,15,06,22.60
2015,07,20,15,07,22.60
2015,07,20,15,08,22.50
2015,07,20,15,09,22.50
2015,07,20,15,10,22.50
2015,07,20,15,11,22.50
2015,07,20,15,12,22.50
2015,07,20,15,13,22.50
2015,07,20,15,14,22.60
2015,07,20,15,15,22.90
2015,07,20,15,16,23.10
2015,07,20,15,17,23.30
2015,07,20,15,18,23.20
2015,07,20,15,19,23.20
2015,07,20,15,20,23.10
2015,07,20,15,21,23.20
2015,07,20,15,22,23.10
2015,07,20,15,23,23.00
2015,07,20,15,24,22.90
2015,07,20,15,25,23.00
2015,07,20,15,26,23.10
2015,07,20,15,27,23.10
2015,07,20,15,28,23.10
2015,07,20,15,29,23.10
2015,07,20,15,30,23.10
2015,07,20,15,31,23.30
2015,07,20,15,32,23.50
2015,07,20,15,33,23.70
2015,07,20,15,34,23.90
2015,07,20,15,35,24.10
2015,07,20,15,36,24.30
2015,07,20,15,37,24.30
2015,07,20,15,38,24.20
2015,07,20,15,39,24.10
2015,07,20,15,40,24.10
2015,07,20,15,41,24.00
2015,07,20,15,42,24.00
2015,07,20,15,43,23.90
2015,07,20,15,44,23.90
2015,07,20,15,45,23.90
2015,07,20,15,46,23.90
2015,07,20,15,47,23.90
2015,07,20,15,48,23.90
2015,07,20,15,49,23.90
2015,07,20,15,50,23.70
2015,07,20,15,51,23.60
2015,07,20,15,52,23.60
2015,07,20,15,53,23.60
2015,07,20,15,54,23.60
2015,07,20,15,55,23.70
2015,07,20,15,56,23.80
2015,07,20,15,57,23.80
2015,07,20,15,58,23.90
2015,07,20,15,59,23.80
2015,07,20,16,00,23.80
2015,07,20,16,01,23.70
2015,07,20,16,02,23.60
2015,07,20,16,03,23.60
2015,07,20,16,04,23.50
2015,07,20,16,05,23.40
2015,07,20,16,06,23.40
2015,07,20,16,07,23.40
2015,07,20,16,08,23.50
2015,07,20,16,09,23.60
2015,07,20,16,10,23.70
2015,07,20,16,11,23.70
2015,07,20,16,12,23.70
2015,07,20,16,13,23.70
2015,07,20,16,14,23.60
2015,07,20,16,15,23.60
2015,07,20,16,16,23.60
2015,07,20,16,17,23.60
2015,07,20,16,18,23.60
2015,07,20,16,19,23.70
2015,07,20,16,20,23.70
2015,07,20,16,21,23.70
2015,07,20,16,22,23.60
2015,07,20,16,23,23.50
2015,07,20,16,24,23.50
2015,07,20,16,25,23.50
2015,07,20,16,26,23.70
2015,07,20,16,27,23.80
2015,07,20,16,28,23.90
2015,07,20,16,29,24.00
2015,07,20,16,30,24.00
2015,07,20,16,31,24.00
2015,07,20,16,32,24.10
2015,07,20,16,33,24.00
2015,07,20,16,34,23.90
2015,07,20,16,35,23.80
2015,07,20,16,36,23.80
2015,07,20,16,37,23.90
2015,07,20,16,38,24.00
2015,07,20,16,39,24.10
2015,07,20,16,40,24.20
2015,07,20,16,41,24.20
2015,07,20,16,42,24.10
2015,07,20,16,43,24.10
2015,07,20,16,44,24.00
2015,07,20,16,45,24.00
2015,07,20,16,46,24.10
2015,07,20,16,47,24.30
2015,07,20,16,48,24.30
2015,07,20,16,49,24.20
2015,07,20,16,50,24.10
2015,07,20,16,51,24.00
2015,07,20,16,52,23.80
2015,07,20,16,53,23.70
2015,07,20,16,54,23.60
2015,07,20,16,55,23.50
2015,07,20,16,56,23.50
2015,07,20,16,57,23.40
2015,07,20,16,58,23.40
2015,07,20,16,59,23.40
2015,07,20,17,00,23.30
2015,07,20,17,01,23.20
2015,07,20,17,02,23.10
2015,07,20,17,03,23.00
2015,07,20,17,04,23.00
2015,07,20,17,05,23.00
2015,07,20,17,06,22.90
2015,07,20,17,07,22.90
2015,07,20,17,08,22.80
2015,07,20,17,09,22.80
2015,07,20,17,10,22.90
2015,07,20,17,11,22.90
2015,07,20,17,12,23.00
2015,07,20,17,13,23.10
2015,07,20,17,14,23.10
2015,07,20,17,15,23.10
2015,07,20,17,16,23.10
2015,07,20,17,17,23.10
2015,07,20,17,18,23.20
2015,07,20,17,19,23.30